AirNav   Everest Fuels
 
 808 users online  

2I3 Rough River State Park Airport
Falls of Rough, Kentucky, USA

GOING TO FALLS OF ROUGH?


FAA INFORMATION EFFECTIVE 03 JANUARY 2019

Location

FAA Identifier: 2I3
Lat/Long: 37-36-35.3000N / 086-30-25.8000W
37-36.588333N / 086-30.430000W
37.6098056 / -86.5071667
(estimated)
Elevation: 577 ft. / 175.9 m (surveyed)
Variation: 01W (1985)
From city: 3 miles NE of FALLS-OF-ROUGH, KY
Time zone: UTC -6 (UTC -5 during Daylight Saving Time)
Zip code: 40119

Airport Operations

Airport use: Open to the public
Activation date: 05/1963
Control tower: no
ARTCC: INDIANAPOLIS CENTER
FSS: LOUISVILLE FLIGHT SERVICE STATION
NOTAMs facility: LOU (NOTAM-D service available)
Attendance: UNATNDD
Wind indicator: lighted
Segmented circle: yes
Lights: ACTVT MIRL RY 2/20; REIL RY 2 & 20 - CTAF. PAPI RY 2 & 20 OPER CONTINUOUSLY.
Beacon: white-green (lighted land airport)
Operates sunset to sunrise.

Airport Communications

CTAF/UNICOM: 122.8
WX AWOS-3PT at JQD (19 nm SW): 132.1 (270-298-7936)

Nearby radio navigation aids

VOR radial/distance  VOR name  Freq  Var
MYSr217/(21.1)MYSTIC VOR108.2001W
FTKr236/31.0FORT KNOX VOR/DME109.6001W
OWBr108/32.3OWENSBORO VOR/DME108.6004W
CCTr070/38.5CENTRAL CITY VORTAC109.8001W
EWOr267/39.5NEW HOPE VOR/DME110.8001E

 
NDB name  Hdg/Dist  Freq  Var  ID
GODMAN233/32.739603WGOI --. --- ..

Airport Services

Parking: tiedowns
Airframe service: NONE
Powerplant service: NONE
Bottled oxygen: NONE
Bulk oxygen: NONE

Runway Information

Runway 2/20

Dimensions: 3200 x 75 ft. / 975 x 23 m
Surface: asphalt, in excellent condition
Weight bearing capacity: 
Single wheel: 8.0
Runway edge lights: medium intensity
RUNWAY 2  RUNWAY 20
Latitude: 37-36.336833N37-36.841000N
Longitude: 086-30.527167W086-30.332667W
Gradient: 0.1%0.1%
Traffic pattern: leftleft
Markings: basic, in good conditionbasic, in good condition
Visual slope indicator: 2-light PAPI on left (4.00 degrees glide path)4-light PAPI on left (5.00 degrees glide path)
Runway end identifier lights: yesyes
Obstructions: 24 ft. road, 404 ft. from runway, 76 ft. right of centerline, 8:1 slope to clear28 ft. tree, 569 ft. from runway, 160 ft. left of centerline, 13:1 slope to clear

Airport Ownership and Management from official FAA records

Ownership: Publicly-owned
Owner: KY DEPT OF PARKS
2 HUDSON HOLLOW UNIT 1
FRANKFORT, KY 40601
Phone (502) 892-3367
Manager: MICHAEL RICKS, PARK MANAGER
450 LODGE ROAD
FALLS OF ROUGH, KY 40119
Phone 270-257-2311

Airport Operational Statistics

Aircraft operations: avg 25/day *
78% transient general aviation
13% local general aviation
7% military
2% air taxi
* for 12-month period ending 21 November 2016

Additional Remarks

TRANSPORTATION TO PARK LODGE AVAIL 270-257-2311.
SOUTH APRON CLSD INDEFLY.

Instrument Procedures

There are no published instrument procedures at 2I3.

Some nearby airports with instrument procedures:

KJQD - Ohio County Airport (19 nm SW)
KTEL - Perry County Municipal Airport (26 nm N)
KY8 - Hancock County Airport-Ron Lewis Field (26 nm NW)
KEKX - Addington Field Airport (28 nm E)
KFTK - Godman Army Airfield (31 nm NE)
 
Loc | Ops | Rwys | IFR | FBO | Links
Com | Nav | Svcs | Stats | Notes
Area around 2I3 (Rough River State Park Airport)
 
Road maps at: MapQuest Bing Google
 
Aerial photo
WARNING: Photo may not be current or correct
Aerial photo of 2I3 (Rough River State Park Airport)
Taken in December 2006

Do you have a better or more recent aerial photo of Rough River State Park Airport that you would like to share? If so, please send us your photo.

 
Sectional chart

 
Airport distance calculator
Flying to Rough River State Park Airport? Find the distance to fly.

From to 2I3

Sunrise and sunset
Times for 18-Jan-2019
 Local
(UTC-6)
 Zulu
(UTC)
Morning civil twilight06:3112:31
Sunrise07:0013:00
Sunset16:5322:53
Evening civil twilight17:2223:22

Current date and time
Zulu (UTC)  18-Jan-2019 13:19:40
Local (UTC-6)  18-Jan-2019 07:19:40
 
METAR
KKY8 
26nm NW 
181255Z AUTO 00000KT 7SM OVC019 03/02 A3016 RMK A01
KFTK 
30nm NE 
181256Z AUTO 30003KT 10SM OVC009 03/02 A3015 RMK AO2 SLP217 T00290019 $
KEKX 
31nm E 
181255Z AUTO 00000KT 10SM OVC011 03/02 A3015 RMK AO2 T00280015
KOWB 
32nm W 
181256Z 01004KT 8SM OVC016 03/01 A3016 RMK AO2 SLP227 T00280011
KM21 
39nm SW 
181255Z AUTO 02004KT 10SM OVC012 03/03 A3014 RMK AO2 T00310025
KBWG 
39nm S 
181253Z AUTO VRB03KT 10SM OVC019 05/03 A3014 RMK AO2 SLP208 T00500028
KGLW 
44nm SE 
181255Z AUTO 36003KT 10SM OVC019 04/03 A3014 RMK AO2 T00400025
KHNB 
44nm NW 
181256Z AUTO 00000KT 9SM OVC013 02/00 A3016 RMK AO2 SLP216 T00170000 FZRANO
K2I0 
45nm W 
181255Z AUTO 01003KT 7SM SCT009 OVC014 03/03 A3015 RMK AO2 T00320027
KI19 
46nm NW 
181256Z AUTO 32003KT 7SM OVC012 01/00 A3014 RMK AO2 T00061001
TAF
KFTK 
30nm NE 
181147Z 1811/1915 35006KT 9999 SCT008 BKN010 QNH3005INS BECMG 1815/1816 07006KT 9999 BKN015 QNH3000INS BECMG 1820/1821 10006KT 9999 BKN007 QNH2978INS BECMG 1907/1908 15012KT 6000 -RA BKN004 OVC007 QNH2961INS TX09/1900Z TN03/1811Z
KOWB 
32nm W 
181137Z 1812/1912 33005KT P6SM OVC012 FM190000 09005KT P6SM BKN020 FM190600 10007KT 6SM RA OVC015
NOTAMs
Click for the latest NOTAMs
NOTAMs are issued by the DoD/FAA and will open in a separate window not controlled by AirNav.

 

 
 

Would you like to see your business listed on this page?

 If your business provides an interesting product or service to pilots, flight crews, aircraft, or users of the Rough River State Park Airport, you should consider listing it here.  To start the listing process, click on the button below
 
Add a business
 

Other Pages about Rough River State Park Airport

Update a link
 
Copyright © AirNav, LLC. All rights reserved. Privacy Policy  Contact